Theta_e
337 336 336 334 332 331 331 331 331 332 333 334 335 335 335 335 335 333 332 332 330 333 332 334 335 337 337 336 337 336 336 337 340
339 339 337 335 333 332 331 333 334 334 335 335 334 335 337 334 334 334 333 333 335 336 335 334 336 337 336 337 339 335 335 336 336
341 341 338 336 334 333 333 335 336 336 336 336 337 338 337 334 334 334 334 333 336 338 338 337 336 337 339 337 336 337 336 337 337
343 342 339 337 335 335 335 337 338 337 338 339 339 339 337 336 336 333 334 332 338 340 340 341 340 339 339 340 341 340 339 338 338
339 341 341 338 337 337 338 338 339 339 338 337 335 334 331 333 332 332 331 334 337 339 339 338 337 339 340 341 341 340 339 340 340
332 336 338 338 337 337 337 336 335 332 329 326 324 324 324 325 323 325 329 331 333 334 333 334 336 337 338 339 339 339 339 339 340
329 328 330 330 332 331 333 328 320 317 316 316 315 314 314 315 317 320 324 326 329 330 331 330 331 334 336 336 336 336 336 337 336
329 329 330 331 328 331 317 313 311 312 312 311 309 309 309 312 310 317 321 322 323 326 326 328 328 328 328 329 329 329 329 329 328
328 329 330 324 316 312 311 308 308 307 306 306 303 302 306 306 306 314 315 319 322 321 325 324 322 321 321 322 324 323 323 323 323
330 319 313 312 310 308 307 306 303 302 302 303 301 301 305 302 303 307 312 312 315 319 319 318 317 318 319 320 318 318 319 319 320
315 312 309 307 305 303 304 301 300 299 299 300 301 300 303 298 301 301 305 309 312 312 313 313 313 314 315 316 315 315 316 316 316
311 308 305 303 300 301 302 300 299 298 297 297 300 298 302 297 298 300 301 299 303 307 308 308 308 308 310 312 312 313 313 313 313
308 304 301 299 301 300 299 300 299 297 296 297 298 298 300 296 297 297 299 298 297 300 302 302 303 304 306 309 310 310 310 310 311
303 301 299 299 298 298 298 297 298 295 296 296 297 297 298 296 296 296 297 296 296 297 296 297 297 300 302 305 307 308 307 308 309
299 299 298 297 297 296 296 295 296 295 294 294 294 297 299 296 296 296 295 296 294 295 295 294 294 296 299 301 303 305 306 306 307
297 297 296 296 295 294 294 295 293 293 294 293 294 295 295 297 297 294 295 294 293 294 294 293 293 293 296 297 299 301 303 304 305
296 296 295 295 294 293 293 293 293 292 292 290 290 289 292 294 293 294 293 293 293 293 292 292 291 292 292 293 297 298 300 303 305
295 295 294 294 294 293 292 292 292 290 291 291 289 287 286 287 292 292 292 291 291 291 291 290 290 291 291 293 293 295 297 301 303
294 294 294 293 293 292 291 291 291 291 289 291 290 290 289 285 284 289 290 290 288 289 289 289 289 290 290 292 293 294 296 300 303
293 293 292 292 291 291 290 290 290 290 289 289 288 288 288 287 284 282 285 287 289 289 288 288 289 289 290 290 291 294 296 299 301
Wind_Speed
8 6 6 6 5 5 4 4 4 4 4 4 5 4 2 1 5 4 5 6 7 9 8 9 8 5 8 8 8 8 9 9 10
8 7 6 5 4 3 3 4 4 4 4 5 5 5 4 5 5 5 5 5 9 8 8 9 10 10 11 11 13 10 10 11 12
8 10 7 4 2 0 2 4 5 5 5 5 5 5 4 4 4 5 5 7 10 10 8 9 11 12 12 13 12 12 12 12 13
9 10 7 4 1 3 3 5 5 6 6 6 6 6 5 5 3 5 4 6 9 10 11 12 12 13 13 14 14 15 14 14 14
7 6 4 2 1 3 4 5 7 8 9 9 9 7 5 4 4 3 3 8 7 7 7 6 7 9 12 15 15 14 15 15 16
3 5 2 3 4 4 5 7 9 10 10 11 10 7 4 5 4 3 8 7 8 9 9 10 11 10 10 11 10 10 13 17 17
2 4 4 3 4 5 6 10 11 8 4 4 6 4 5 4 4 4 9 8 8 9 10 10 10 12 14 15 15 13 12 13 12
2 1 1 2 3 3 6 6 5 7 5 4 4 4 4 3 3 7 11 10 8 8 9 10 13 14 14 14 13 13 12 12 11
3 2 4 4 4 5 5 4 6 6 6 5 5 5 4 3 3 6 11 11 11 9 10 11 13 13 12 11 12 12 12 12 11
5 5 4 4 4 4 5 5 5 5 5 5 5 5 4 4 3 3 11 11 10 12 11 11 13 13 12 11 12 12 11 11 11
5 5 5 5 4 4 5 5 4 4 4 4 4 5 4 5 5 4 5 12 12 12 11 12 13 14 13 13 13 13 11 11 11
7 6 5 4 4 6 4 4 4 4 4 4 2 3 3 4 5 5 4 5 10 10 11 14 15 15 15 15 15 13 13 13 13
7 5 6 5 4 4 5 4 3 4 4 4 2 2 2 4 5 4 4 4 4 6 11 15 15 16 16 16 16 15 15 17 17
7 7 6 7 5 5 4 5 4 5 6 5 3 4 2 4 4 5 4 5 5 3 6 12 13 16 17 17 16 15 17 19 18
8 6 8 6 6 5 4 6 5 4 6 5 5 2 2 3 2 2 4 2 5 4 5 7 9 17 17 17 17 17 20 20 20
7 7 8 7 7 6 4 3 5 6 7 4 4 2 2 2 2 3 1 1 4 5 6 8 9 9 17 17 19 19 22 21 21
7 9 8 8 6 6 6 4 2 3 6 4 1 4 2 2 6 2 2 5 5 9 11 12 13 10 10 13 20 20 21 21 21
10 10 9 7 6 5 5 4 4 3 4 7 4 2 2 5 3 5 4 6 7 9 10 12 12 12 11 13 13 17 21 22 24
9 10 9 8 6 6 5 4 4 2 4 1 4 2 2 3 6 2 5 2 11 10 9 10 11 11 9 13 17 21 22 24 26
9 9 9 8 5 6 6 5 4 3 2 1 1 1 2 3 5 10 7 10 9 9 8 11 8 10 10 10 13 20 25 26 27
Wind_Direction
159 140 124 112 100 83 76 56 39 28 16 355 337 328 334 331 319 331 328 313 315 308 296 289 295 239 258 259 263 269 276 264 251
188 160 151 135 115 82 44 19 4 0 347 336 331 327 344 324 319 324 318 308 309 308 297 280 275 274 265 255 256 270 256 258 261
179 161 161 144 131 350 343 350 343 335 332 329 328 316 315 295 304 312 311 309 305 303 293 278 268 269 267 260 258 258 267 266 269
163 153 156 157 195 342 337 333 339 333 334 329 325 306 316 301 314 317 310 314 296 289 286 280 275 270 266 265 258 255 256 260 263
58 136 149 177 14 345 337 343 347 357 26 29 26 34 41 33 26 22 354 317 314 309 330 328 344 320 290 279 271 263 261 259 260
58 53 55 22 14 344 354 7 34 58 58 54 49 44 41 44 40 20 2 353 359 3 12 18 8 0 348 339 340 310 284 273 271
69 66 43 8 355 15 29 66 66 59 59 57 43 47 40 36 36 27 7 12 18 20 27 18 11 25 31 39 40 39 40 45 39
131 146 85 16 46 66 72 56 49 55 48 47 48 36 34 32 38 27 33 21 14 27 21 38 36 30 25 24 24 26 25 24 19
120 112 92 80 74 76 60 63 56 50 47 42 48 36 32 47 47 44 34 41 37 30 44 43 32 19 12 12 21 15 9 3 3
132 104 92 79 74 67 73 63 56 42 32 38 41 36 64 60 62 60 40 41 40 49 43 37 24 16 6 11 4 355 354 349 349
125 114 96 74 77 74 71 60 52 43 24 38 40 37 80 61 71 55 55 47 50 47 42 33 19 9 1 356 348 341 342 337 336
121 109 93 90 79 88 84 74 54 36 13 35 35 37 119 79 79 64 70 57 47 46 42 27 12 3 351 344 339 333 330 325 320
113 108 111 106 95 87 72 50 52 19 358 350 23 13 188 129 95 77 85 60 43 42 38 22 10 357 345 338 331 325 326 321 315
115 119 118 105 94 77 77 59 33 16 353 334 351 348 166 144 105 90 83 69 50 25 23 8 3 352 339 331 325 321 320 318 311
111 126 109 104 91 78 79 76 60 24 342 317 342 47 91 155 108 50 356 62 30 13 360 351 345 338 336 331 327 319 317 315 306
125 116 104 93 84 83 69 97 49 31 358 344 352 24 52 210 218 334 10 85 7 354 341 346 340 330 327 325 321 311 315 312 305
130 113 103 102 107 88 65 55 104 51 20 22 344 3 344 15 323 318 12 1 342 343 342 333 326 319 318 314 315 314 311 307 304
111 108 108 106 99 92 83 68 68 69 59 43 24 340 329 329 321 318 325 340 339 325 322 316 314 313 312 312 313 310 309 305 301
112 109 109 105 106 110 100 81 74 86 52 93 49 54 295 319 307 266 278 289 317 309 306 307 308 303 306 308 307 309 305 304 302
112 110 110 112 111 107 103 98 85 72 94 53 0 4 292 260 260 301 302 307 306 307 305 305 296 305 305 306 307 306 308 303 300